Wind_Speed
56 58 54 52 47 44 45 45 47 46 43 42 39 35 33 29 26 23 25 28 31 33 25 27 38 51 58 43 39 37 29 20
53 48 48 48 48 45 47 48 47 42 43 40 39 37 35 31 27 22 24 28 31 31 29 31 38 52 62 47 38 34 31 26
54 52 51 51 53 52 50 49 47 43 47 41 40 37 36 34 28 22 24 29 32 31 29 28 39 50 61 54 46 42 36 34
60 58 55 57 56 53 50 48 48 49 49 40 39 36 34 33 30 24 24 26 32 32 29 30 38 46 55 60 51 40 41 38
67 62 61 59 56 55 54 52 53 48 49 39 38 36 34 32 30 23 25 25 33 32 31 34 40 45 54 58 50 47 50 36
70 64 63 58 56 57 54 56 50 50 47 39 39 37 37 34 30 27 26 25 35 33 34 31 39 39 42 45 50 48 40 37
67 63 62 58 58 59 58 54 53 49 42 38 38 36 36 34 32 27 26 23 36 36 35 30 40 44 37 40 47 40 39 40
65 60 60 58 60 58 55 54 54 49 43 39 38 38 37 33 31 27 26 21 37 39 36 37 40 46 41 44 45 42 41 40
64 63 61 61 58 56 54 53 52 49 43 38 40 41 37 33 30 26 23 18 37 43 40 41 43 46 44 50 42 44 49 53
64 62 60 58 58 55 54 53 53 49 41 39 42 41 36 36 29 27 18 21 37 46 43 46 42 46 46 44 41 38 35 38
63 62 60 58 55 53 54 53 52 45 40 40 44 42 40 37 32 27 17 23 34 47 47 45 48 53 50 47 44 42 46 48
62 60 57 54 53 53 53 52 49 43 40 43 44 42 41 37 35 27 17 19 35 42 49 46 45 47 55 51 51 52 55 54
59 57 54 53 52 52 53 53 47 41 42 47 47 41 42 39 35 29 18 16 39 47 51 49 47 58 50 53 59 62 61 63
55 53 52 49 50 49 51 52 48 40 44 48 47 42 42 41 37 32 23 16 41 45 51 46 47 53 59 56 60 61 61 65
49 47 48 47 47 45 49 49 41 40 48 48 46 43 45 44 41 35 28 26 27 45 44 43 54 51 54 53 59 62 64 64
52 52 48 47 46 39 47 46 40 43 46 48 47 42 44 44 41 37 34 33 30 29 43 50 52 53 56 57 60 62 61 61
60 55 55 50 44 40 48 44 43 51 49 46 43 44 43 41 43 42 36 38 37 35 34 38 48 60 59 55 52 54 58 64
63 64 61 57 43 43 50 42 45 55 55 49 47 45 44 39 37 40 38 39 43 43 43 41 39 42 47 50 51 57 57 57
64 62 57 56 45 48 46 41 34 53 51 52 52 50 48 45 46 42 42 43 43 44 47 44 43 42 42 44 47 49 50 51
Wind_Direction
258 263 272 281 276 277 281 289 293 300 297 292 288 244 246 247 254 267 265 274 246 243 238 238 222 218 209 207 212 215 224 222
259 263 267 266 271 277 281 285 289 293 298 292 286 249 239 244 250 264 264 274 244 244 248 244 222 209 209 208 213 207 212 222
263 259 263 266 271 274 279 284 286 288 294 290 281 255 241 240 247 259 264 272 243 247 252 248 218 210 211 209 211 215 228 229
260 262 264 267 269 272 276 277 280 286 292 283 274 251 241 238 244 253 261 262 236 241 249 240 220 211 211 212 216 219 223 232
259 259 262 264 266 268 271 275 279 282 287 273 265 242 239 240 244 251 262 255 232 235 245 232 218 214 211 213 215 223 230 236
256 256 259 259 262 268 269 274 277 281 279 264 257 236 236 240 248 253 264 252 228 232 235 235 207 205 208 215 216 229 234 233
251 254 256 255 258 262 268 270 273 278 270 254 250 232 235 238 247 257 257 253 219 229 227 231 211 208 213 216 215 227 229 227
249 250 253 254 257 262 265 266 272 270 261 250 240 229 232 236 243 258 249 259 217 222 220 217 213 210 218 221 223 231 230 231
249 248 253 254 256 258 259 263 264 262 255 245 230 228 228 232 235 251 249 264 215 218 219 214 210 216 221 224 226 228 232 238
245 245 246 251 254 255 256 257 258 259 248 236 224 225 224 225 233 242 254 256 218 213 216 217 213 222 218 213 224 223 224 233
244 243 245 247 249 251 251 255 254 255 243 226 221 221 224 222 234 236 252 255 216 210 214 218 218 224 221 222 224 226 231 228
240 242 245 242 246 247 252 254 250 247 237 218 217 221 220 222 233 234 242 254 202 208 216 216 219 215 225 226 220 223 229 229
236 239 236 238 243 244 252 250 247 247 228 216 215 216 220 223 231 232 237 229 194 206 220 220 218 219 224 222 224 225 230 233
232 231 229 233 238 245 249 245 246 237 222 213 214 220 226 224 230 232 235 230 201 201 218 224 228 228 228 230 226 230 235 239
232 232 227 227 234 244 243 240 241 225 211 212 217 222 226 223 229 229 230 233 224 209 209 217 228 234 237 239 238 240 241 245
232 234 232 233 234 242 235 236 230 214 208 212 218 222 227 226 231 232 233 233 229 231 221 217 222 226 235 239 241 246 250 251
227 228 232 232 236 230 230 230 216 203 209 209 215 218 221 226 232 235 234 233 234 234 235 229 222 220 225 229 233 241 246 247
230 231 233 236 233 224 224 225 209 205 211 210 216 217 221 224 230 234 232 231 235 236 236 237 236 234 234 236 236 235 240 244
230 232 233 235 229 218 220 210 222 212 222 218 220 220 222 228 230 231 239 242 240 237 237 241 244 245 248 251 251 252 255 257
Height
10642 10645 10646 10643 10645 10647 10648 10645 10642 10641 10639 10638 10638 10638 10641 10643 10644 10644 10643 10642 10643 10646 10649 10651 10655 10662 10670 10676 10680 10685 10690 10692
10630 10633 10634 10633 10633 10635 10636 10635 10633 10630 10629 10629 10629 10630 10632 10635 10637 10637 10636 10635 10636 10639 10641 10642 10647 10653 10662 10669 10675 10681 10685 10687
10618 10620 10623 10621 10620 10621 10624 10625 10624 10621 10621 10620 10619 10621 10623 10626 10629 10629 10629 10628 10629 10632 10635 10636 10640 10646 10655 10663 10669 10675 10679 10682
10601 10604 10608 10607 10609 10610 10613 10614 10614 10612 10612 10610 10611 10612 10615 10618 10622 10623 10622 10621 10622 10625 10628 10630 10634 10639 10646 10654 10662 10669 10672 10677
10586 10589 10594 10595 10596 10598 10600 10600 10602 10602 10602 10601 10602 10604 10607 10611 10614 10616 10615 10614 10615 10618 10622 10625 10628 10632 10640 10649 10656 10661 10668 10672
10570 10576 10579 10583 10583 10585 10586 10587 10589 10590 10591 10591 10592 10595 10599 10601 10605 10608 10608 10607 10609 10613 10616 10619 10624 10630 10637 10643 10650 10657 10660 10665
10556 10562 10564 10570 10571 10571 10572 10575 10576 10579 10580 10580 10583 10586 10590 10593 10596 10599 10599 10598 10601 10607 10610 10614 10618 10625 10632 10638 10644 10649 10653 10658
10541 10548 10550 10553 10556 10558 10560 10563 10564 10568 10569 10570 10573 10577 10581 10585 10588 10591 10590 10589 10593 10599 10605 10609 10613 10620 10627 10632 10638 10642 10647 10651
10526 10533 10537 10538 10542 10545 10546 10549 10551 10555 10558 10560 10564 10568 10572 10576 10578 10583 10582 10581 10585 10591 10599 10604 10609 10615 10621 10627 10632 10637 10640 10644
10511 10518 10523 10524 10527 10531 10532 10535 10537 10542 10547 10549 10553 10559 10564 10567 10570 10573 10572 10573 10577 10583 10591 10599 10605 10608 10613 10619 10625 10629 10633 10635
10496 10503 10509 10510 10514 10517 10519 10521 10524 10530 10535 10539 10544 10549 10555 10558 10561 10564 10563 10565 10568 10576 10582 10592 10599 10601 10608 10613 10617 10620 10621 10625
10482 10488 10494 10497 10501 10503 10505 10509 10513 10519 10524 10529 10535 10539 10545 10550 10553 10555 10555 10557 10562 10569 10575 10584 10591 10595 10598 10604 10607 10608 10611 10613
10464 10471 10477 10483 10487 10490 10493 10497 10502 10509 10513 10519 10526 10531 10537 10541 10546 10548 10548 10551 10557 10562 10566 10574 10582 10588 10591 10594 10596 10598 10601 10603
10448 10454 10462 10470 10475 10479 10481 10485 10491 10498 10503 10512 10518 10524 10529 10534 10539 10541 10542 10545 10550 10556 10560 10566 10572 10576 10582 10586 10587 10589 10592 10594
10436 10442 10450 10458 10464 10468 10470 10475 10481 10488 10496 10503 10510 10516 10521 10526 10531 10534 10536 10539 10543 10548 10553 10558 10562 10566 10569 10574 10576 10578 10582 10585
10422 10430 10438 10445 10452 10456 10459 10465 10473 10480 10489 10496 10503 10509 10514 10519 10525 10528 10530 10532 10536 10539 10543 10548 10553 10556 10559 10562 10565 10567 10571 10573
10408 10416 10424 10431 10440 10445 10450 10457 10464 10472 10480 10487 10494 10500 10506 10512 10516 10520 10522 10525 10528 10532 10535 10538 10542 10546 10549 10551 10553 10555 10557 10558
10393 10401 10411 10419 10427 10434 10441 10449 10456 10464 10471 10478 10485 10492 10497 10503 10507 10511 10513 10516 10519 10521 10524 10527 10530 10534 10536 10538 10540 10541 10542 10543
10378 10389 10399 10406 10415 10424 10433 10444 10453 10458 10463 10469 10475 10482 10487 10492 10497 10501 10505 10507 10510 10512 10516 10519 10522 10526 10528 10530 10531 10531 10532 10532